Regional Weather Roundup
Issued by NWS

Home | Current Version | Previous Version | Text Only | Print | Product List | Glossary Off
Versions: 1 2 3 4 5 6 7 8 9 10 11 12 13 14 15 16 17 18 19 20 21 22 23 24 25 26 27 28 29 30 31 32 33 34 35 36 37 38 39 40 41 42 43 44 45 46 47 48 49 50

000
ASUS43 KMKX 010059
RWRWI

WISCONSIN REGIONAL WEATHER ROUNDUP
NATIONAL WEATHER SERVICE MILWAUKEE/SULLIVAN WI
700 PM CST SAT FEB 28 2015

NOTE: "FAIR" INDICATES FEW OR NO CLOUDS BELOW 12,000 FEET WITH NO
SIGNIFICANT WEATHER AND/OR OBSTRUCTIONS TO VISIBILITY.

WIZ001-002-006>008-014>016-023>028-010200-
NORTHWEST WISCONSIN

CITY           SKY/WX    TMP DP  RH WIND       PRES   REMARKS
SUPERIOR ARPT  CLOUDY    19   4  53 S14       30.31R WCI   5
ASHLAND        PTCLDY    16  -3  43 S15       30.33S WCI   1
HAYWARD        MOCLDY    13  -1  54 S14       30.32S WCI  -2
SIREN          PTCLDY    15   2  55 S12       30.33F WCI   2
CUMBERLAND     CLOUDY    12   0  57 S10       30.33F WCI  -1
RICE LAKE      CLOUDY    14  -1  51 S9        30.37S WCI   2
CHETEK         CLOUDY    13  -1  52 S5        30.37S WCI   6
LADYSMITH      MOCLDY    13  -1  52 S7        30.38S WCI   3
EAU CLAIRE     CLOUDY    15  -1  49 S12       30.39F WCI   2
MENOMONIE      CLOUDY    15   1  54 S10       30.39F WCI   3
NEW RICHMOND   CLOUDY    14   2  60 S9        30.36S WCI   1
OSCEOLA        CLOUDY    15   3  60 S10       30.39S WCI   2
$$

WIZ003>005-009-010-017-018-010200-
NORTH CENTRAL WISCONSIN

CITY           SKY/WX    TMP DP  RH WIND       PRES   REMARKS
MANITOWISH WTR CLEAR     12  -5  47 S8        30.31R WCI   0
ARBOR VITAE    CLEAR     11  -5  48 S5        30.32S WCI   3
WOODRUFF       CLEAR     11  -5  48 S5        30.32S WCI   3
RHINELANDER    CLEAR     11  -5  48 SW5       30.34S WCI   3
EAGLE RIVER    FAIR      13  -8  39 SW6       30.32S WCI   4
LAND O LAKES   CLEAR     14  -6  40 S8        30.31S WCI   3
PHILLIPS       CLEAR     11  -3  52 S5        30.33S WCI   3
TOMAHAWK       CLEAR      9  -4  54 CALM      30.36S
MEDFORD        CLOUDY     9  -4  54 S6        30.35S WCI   0
MERRILL        CLEAR     13  -4  46 S5        30.38S WCI   6
$$

WIZ029-030-035-036-043>047-010200-
CENTRAL WISCONSIN

CITY           SKY/WX    TMP DP  RH WIND       PRES   REMARKS
WAUSAU         CLEAR     14  -5  42 S8        30.38S WCI   3
MOSINEE        NOT AVBL
MARSHFIELD     CLOUDY    15  -2  46 S8        30.39F WCI   4
STEVENS POINT  CLEAR     13  -3  47 S6        30.43R WCI   4
WAUPACA        FAIR      16   0  48 SE7       30.47S WCI   6
WAUTOMA        NOT AVBL
WISC RAPIDS    CLOUDY    14  -5  42 S5        30.44F WCI   6
CAMP DOUGLAS   NOT AVBL
$$

WIZ011>013-019>022-031-037>040-048>050-010200-
NORTHEAST WISCONSIN

CITY           SKY/WX    TMP DP  RH WIND       PRES   REMARKS
ANTIGO         PTCLDY     9  -4  55 S9        30.37S WCI  -4
SHAWANO        CLEAR     17  -1  44 S6        30.46S WCI   9
OCONTO         CLEAR     15  -1  49 S3        30.48F
STURGEON BAY   CLEAR     16   3  57 S7        30.50S WCI   6
GREEN BAY      CLEAR     15   0  51 S6        30.49S WCI   6
MANITOWOC      NOT AVBL
APPLETON       PTCLDY    12   0  57 SW9       30.48S WCI   0
CLINTONVILLE   CLEAR     16   1  53 S9        30.46S WCI   4
OSHKOSH        PTCLDY    12   2  64 S8        30.48F WCI   0
$$

WIZ032>034-041-042-053>061-010200-
SOUTHWEST WISCONSIN

CITY           SKY/WX    TMP DP  RH WIND       PRES   REMARKS
LA CROSSE      CLOUDY    18   1  47 S10       30.45S WCI   6
SPARTA         CLOUDY    17  -3  40 S3        30.45S
VIROQUA        CLOUDY    14   1  56 S10       30.41S WCI   1
BOSCOBEL       MOCLDY    15   1  53 S3        30.49F
PRAIRIE DU CHI PTCLDY    16  -4  41 SE3       30.48F
PLATTEVILLE    MOCLDY    13   4  66 E7        30.46S WCI   3
$$

WIZ056-057-062-063-064-067-068-010200-
SOUTH CENTRAL WISCONSIN

CITY           SKY/WX    TMP DP  RH WIND       PRES   REMARKS
REEDSBURG      CLOUDY    15   0  52 S7        30.46S WCI   5
BARABOO/DELLS  CLOUDY    15   2  56 S8        30.45S WCI   4
LONE ROCK      NOT AVBL
MINERAL POINT  MOCLDY    14   1  57 SE6       30.45F WCI   5
MADISON        CLOUDY    15  -1  49 S12       30.48S WCI   2
MIDDLETON      CLOUDY    16   1  52 S6        30.49R WCI   7
WATERTOWN      CLOUDY    15   1  53 CALM      30.49F
MONROE         CLOUDY    14   5  67 SE7       30.47S WCI   4
JANESVILLE     NOT AVBL
$$

WIZ051-052-058>065-066-070>072-010200-
SOUTHEAST WISCONSIN

CITY           SKY/WX    TMP DP  RH WIND       PRES   REMARKS
MILWAUKEE      CLOUDY    18   6  59 S6        30.52F WCI  10
WAUKESHA       CLOUDY    16   0  48 CALM      30.50F
MILWAUKEE/TIMM NOT AVBL
RACINE         MOCLDY    19   7  59 S9        30.54S WCI   8
BURLINGTON     MOCLDY    15   1  55 CALM      30.52R
KENOSHA        MOCLDY    19   8  62 SE8       30.52R WCI   9
FOND DU LAC    FAIR      14  -1  51 S6        30.48F WCI   5
SHEBOYGAN      FAIR      16   6  65 S7        30.50F WCI   6
WEST BEND      PTCLDY    16  -4  41 CALM      30.49F
JUNEAU         CLOUDY    14   0  53 S7        30.49F WCI   4
$$

LSZ147-162-010200-
LAKE SUPERIOR

STATION/POSITION TIME  TEMP    WIND        PRES    WAVE
                       AIR SEA DIR/SP/G            HT/PER
                 (UTC) (F)     (DEG/KT/KT) (MB)    (FT/S)
DEVILS ISLAND    0000   20     180/  9/ 12 1027.6F
PORT WING        0000   19     190/ 11/ 18 1026.4F
SAXON HARBOR     0040   19     200/  5/  8 1027.1F
$$

LMZ867-665-643>646-010200-
LAKE MICHIGAN

STATION/POSITION TIME  TEMP    WIND        PRES    WAVE
                       AIR SEA DIR/SP/G            HT/PER
                 (UTC) (F)     (DEG/KT/KT) (MB)    (FT/S)
NORTHPORT PIER   0000   17      CALM  /  9 1032.2S
SISTER BAY       0013   14     210/  7/  8   N/A
KEWAUNEE LAKESHO 0000   18     210/ 11/ 14 1031.9F
SHEBOYGAN LAKESH 0000   19     180/ 16/ 19 1035.0F
PORT WASHINGTON  0040   18     210/  4/  7 1033.9F
MILWAUKEE LAKESH 0000   19     200/  5/  6   N/A
KENOSHA   LAKESH 0000   20     150/  8/ 13 1033.2F
$$

TC  - TEMPERATURE IN CELSIUS
VSB - VISIBILITY IN STATUTE MILES
WCI - WIND CHILL INDEX
HX  - HEAT INDEX



USA.gov is the U.S. government's official web portal to all federal, state and local government web resources and services.